Pagosa Springs, CO

8:00 PM MST on December 13, 2017 (GMT -0700)
Pagosa Springs

Weather History for KPSO - September, 2012

Change the Weather History Date:

Wednesday, September 5, 2012

  Actual Average (KE33) Record (KE33)
Temperature  
Mean Temperature 68 °F -  
Max Temperature 83 °F 69 °F 84 °F (2000)
Min Temperature 51 °F 48 °F 41 °F (2004)
Cooling Degree Days 2    
Growing Degree Days 18 (Base 50)    
Moisture  
Dew Point 21 °F    
Average Humidity 22    
Maximum Humidity 49    
Minimum Humidity 7    
Precipitation  
Precipitation 0.00 in - - ()
Sea Level Pressure  
Sea Level Pressure 30.29 in    
Wind  
Wind Speed 2 mph (SW)    
Max Wind Speed 16 mph    
Max Gust Speed 21 mph    
Visibility 10 miles    
Events      
Averages and records for this station are not official NWS values.
T = Trace of Precipitation, MM = Missing Value Source: NWS Daily Summary

Daily Weather History Graph

Daily Weather History Graph

Search for Another Location

Airport or City:

Trip Planner

Search our weather history database for the weather conditions in past years. The results will help you decide how hot, cold, wet, or windy it might be!

Date:

Astronomy

Sep. 05, 2012 Rise Set
Actual Time 6:42 AM MDT 7:30 PM MDT
Civil Twilight 6:16 AM MDT 7:56 PM MDT
Nautical Twilight 5:44 AM MDT 8:27 PM MDT
Astronomical Twilight 5:12 AM MDT 9:00 PM MDT
Moon 10:10 PM MDT (9/5) 11:41 AM MDT (9/5)
Length of Visible Light 13h 40m
Length of Day
12h 47m
Waning Gibbous, 75% of the Moon is Illuminated
Sep 5
Waning Gibbous
Sep 8
Last Quarter
Sep 15
New
Sep 22
First Quarter
Sep 29
Full

Hourly Weather History & Observations

Time (MDT) Temp. Dew Point Humidity Pressure Visibility Wind Dir Wind Speed Gust Speed Precip Events Conditions
12:15 AM 55.4 °F 31.3 °F 40% 30.30 in 10.0 mi Calm Calm - N/A   Clear
12:35 AM 55.8 °F 32.0 °F 41% 30.30 in 10.0 mi Calm Calm - N/A   Clear
12:55 AM 54.5 °F 30.7 °F 40% 30.31 in 10.0 mi Calm Calm - N/A   Clear
1:15 AM 55.9 °F 29.7 °F 37% 30.31 in 10.0 mi Calm Calm - N/A   Clear
1:35 AM 52.9 °F 32.0 °F 45% 30.31 in 10.0 mi Calm Calm - N/A   Scattered Clouds
1:55 AM 52.5 °F 33.8 °F 49% 30.31 in 10.0 mi Calm Calm - N/A   Scattered Clouds
2:15 AM 55.6 °F 29.7 °F 37% 30.31 in 10.0 mi Calm Calm - N/A   Clear
2:35 AM 56.7 °F 31.3 °F 38% 30.31 in 10.0 mi Calm Calm - N/A   Clear
2:55 AM 54.7 °F 30.9 °F 40% 30.31 in 10.0 mi Calm Calm - N/A   Clear
3:15 AM 53.4 °F 30.6 °F 42% 30.31 in 10.0 mi Calm Calm - N/A   Clear
3:35 AM 53.8 °F 30.2 °F 41% 30.31 in 10.0 mi Calm Calm - N/A   Mostly Cloudy
3:55 AM 55.0 °F 29.7 °F 38% 30.31 in 10.0 mi Calm Calm - N/A   Overcast
4:15 AM 55.0 °F 29.8 °F 38% 30.31 in 10.0 mi Calm Calm - N/A   Overcast
4:35 AM 55.6 °F 29.3 °F 37% 30.31 in 10.0 mi Calm Calm - N/A   Mostly Cloudy
4:55 AM 55.2 °F 31.8 °F 41% 30.31 in 10.0 mi Calm Calm - N/A   Mostly Cloudy
5:15 AM 58.6 °F 28.9 °F 32% 30.31 in 10.0 mi Calm Calm - N/A   Mostly Cloudy
5:35 AM 57.4 °F 28.9 °F 34% 30.31 in 10.0 mi Calm Calm - N/A   Scattered Clouds
5:55 AM 55.0 °F 31.6 °F 41% 30.31 in 10.0 mi Calm Calm - N/A   Clear
6:15 AM 57.0 °F 28.0 °F 33% 30.31 in 10.0 mi Calm Calm - N/A   Clear
6:35 AM 56.8 °F 28.6 °F 34% 30.32 in 10.0 mi Calm Calm - N/A   Clear
6:55 AM 54.0 °F 28.0 °F 37% 30.33 in 10.0 mi Calm Calm - N/A   Clear
7:15 AM 53.2 °F 29.5 °F 40% 30.34 in 10.0 mi Calm Calm - N/A   Mostly Cloudy
7:35 AM 55.8 °F 29.3 °F 36% 30.34 in 10.0 mi Calm Calm - N/A   Mostly Cloudy
7:55 AM 57.6 °F 29.5 °F 34% 30.34 in 10.0 mi Calm Calm - N/A   Scattered Clouds
8:15 AM 62.6 °F 24.3 °F 23% 30.34 in 10.0 mi Calm Calm - N/A   Clear
8:35 AM 64.0 °F 24.8 °F 23% 30.35 in 10.0 mi Calm Calm - N/A   Clear
8:55 AM 66.2 °F 21.9 °F 19% 30.35 in 10.0 mi Calm Calm - N/A   Clear
9:15 AM 69.1 °F 23.4 °F 18% 30.35 in 10.0 mi West 3.5 mph - N/A   Clear
9:35 AM 71.4 °F 16.5 °F 12% 30.35 in 10.0 mi Calm Calm - N/A   Clear
9:55 AM 72.5 °F 15.3 °F 11% 30.35 in 10.0 mi Calm Calm - N/A   Clear
10:15 AM 74.3 °F 12.9 °F 10% 30.35 in 10.0 mi SSW 3.5 mph - N/A   Clear
10:35 AM 75.6 °F 14.4 °F 10% 30.35 in 10.0 mi Calm Calm - N/A   Clear
10:55 AM 75.2 °F 13.5 °F 10% 30.35 in 10.0 mi South 3.5 mph - N/A   Clear
11:15 AM 76.6 °F 13.6 °F 9% 30.34 in 10.0 mi Calm Calm - N/A   Clear
11:35 AM 78.4 °F 13.8 °F 9% 30.33 in 10.0 mi Calm Calm - N/A   Clear
11:55 AM 78.1 °F 13.5 °F 9% 30.32 in 10.0 mi ENE 5.8 mph - N/A   Clear
12:15 PM 78.4 °F 12.4 °F 8% 30.31 in 10.0 mi WSW 6.9 mph - N/A   Clear
12:35 PM 77.7 °F 12.6 °F 8% 30.31 in 10.0 mi Calm Calm - N/A   Clear
12:55 PM 79.2 °F 13.6 °F 8% 30.29 in 10.0 mi SSW 4.6 mph - N/A   Clear
1:15 PM 80.4 °F 15.1 °F 9% 30.29 in 10.0 mi NW 6.9 mph - N/A   Clear
1:35 PM 79.5 °F 14.5 °F 9% 30.28 in 10.0 mi Calm Calm - N/A   Clear
1:55 PM 81.0 °F 15.3 °F 9% 30.28 in 10.0 mi Calm Calm - N/A   Clear
2:15 PM 80.8 °F 14.9 °F 8% 30.27 in 10.0 mi WSW 3.5 mph 17.3 mph N/A   Clear
2:35 PM 82.2 °F 15.3 °F 8% 30.26 in 10.0 mi West 6.9 mph - N/A   Clear
2:55 PM 82.2 °F 15.6 °F 8% 30.26 in 10.0 mi Calm Calm - N/A   Clear
3:15 PM 81.9 °F 15.6 °F 8% 30.25 in 10.0 mi West 11.5 mph 17.3 mph N/A   Clear
3:35 PM 83.3 °F 13.6 °F 7% 30.24 in 10.0 mi SSW 15.0 mph 20.7 mph N/A   Clear
3:55 PM 83.1 °F 13.6 °F 7% 30.24 in 10.0 mi WSW 11.5 mph 19.6 mph N/A   Clear
4:15 PM 83.1 °F 12.7 °F 7% 30.23 in 10.0 mi SSW 15.0 mph - N/A   Clear
4:35 PM 83.3 °F 12.4 °F 7% 30.23 in 10.0 mi SSW 16.1 mph 20.7 mph N/A   Clear
4:55 PM 83.1 °F 12.4 °F 7% 30.22 in 10.0 mi SW 10.4 mph 19.6 mph N/A   Clear
5:15 PM 83.3 °F 12.9 °F 7% 30.22 in 10.0 mi WSW 13.8 mph 20.7 mph N/A   Clear
5:35 PM 82.4 °F 13.3 °F 7% 30.22 in 10.0 mi West 8.1 mph 16.1 mph N/A   Clear
5:55 PM 81.9 °F 12.7 °F 7% 30.22 in 10.0 mi SW 9.2 mph - N/A   Clear
6:15 PM 81.7 °F 12.9 °F 8% 30.22 in 10.0 mi SW 9.2 mph 16.1 mph N/A   Clear
6:35 PM 81.0 °F 12.6 °F 8% 30.21 in 10.0 mi SSW 10.4 mph 18.4 mph N/A   Clear
6:55 PM 80.6 °F 14.5 °F 8% 30.21 in 10.0 mi SW 9.2 mph - N/A   Clear
7:15 PM 79.2 °F 14.2 °F 9% 30.22 in 10.0 mi WSW 6.9 mph - N/A   Clear
7:35 PM 77.0 °F 16.7 °F 10% 30.23 in 10.0 mi WSW 9.2 mph - N/A   Clear
7:55 PM 76.1 °F 16.9 °F 11% 30.23 in 10.0 mi WSW 6.9 mph - N/A   Clear
8:15 PM 74.8 °F 17.4 °F 11% 30.24 in 10.0 mi Calm Calm - N/A   Clear
8:35 PM 63.9 °F 21.9 °F 20% 30.25 in 10.0 mi Calm Calm - N/A   Clear
8:55 PM 64.0 °F 20.5 °F 19% 30.26 in 10.0 mi East 4.6 mph - N/A   Clear
9:15 PM 64.9 °F 21.0 °F 19% 30.26 in 10.0 mi Calm Calm - N/A   Clear
9:35 PM 62.6 °F 21.9 °F 21% 30.26 in 10.0 mi Calm Calm - N/A   Clear
9:55 PM 62.1 °F 21.4 °F 21% 30.27 in 10.0 mi NNE 3.5 mph - N/A   Clear
10:15 PM 60.3 °F 21.7 °F 23% 30.27 in 10.0 mi NNE 5.8 mph - N/A   Clear
10:35 PM 59.2 °F 22.6 °F 25% 30.27 in 10.0 mi NNE 4.6 mph - N/A   Clear
10:55 PM 59.0 °F 22.3 °F 24% 30.28 in 10.0 mi Calm Calm - N/A   Clear
11:15 PM 56.5 °F 22.5 °F 27% 30.28 in 10.0 mi Calm Calm - N/A   Clear
11:35 PM 53.4 °F 22.8 °F 30% 30.29 in 10.0 mi Calm Calm - N/A   Clear
11:55 PM 51.6 °F 23.2 °F 33% 30.29 in 10.0 mi Calm Calm - N/A   Clear